Location: Helsinki
(60.1699°N, 24.9384°E)
Time: 23:54:08
(UTC+02:00)

Altair - Pass Details

Date: 27 October 2020
Orbit: 1502 x 1682 km, 47.2° (Epoch: 25 November)

Event Time Altitude Azimuth Distance (km) Brightness Sun altitude
Rises 06:21:00 0° 218° (SW) 4,666 9.8 -9.1°
Reaches altitude 10° 06:24:29 10° 208° (SSW) 3,706 9.3 -8.7°
Maximum altitude 06:32:05 29° 153° (SSE) 2,569 9.2 -7.8°
Drops below altitude 10° 06:39:55 10° 99° (E) 3,827 11.4 -6.8°
Sets 06:43:35 0° 89° (E) 4,842 11.9 -6.4°
